"Pseudo-MPEC" for P10Lp19

Created 2019 Jan 15 15:18:27 UT using Find_Orb

Click here for an explanation of pseudo-MPECs

 
 Astrometry: 
     P10Lp19  C2019 01 11A8]fj?Vlm0OW9Z:;0i.lgZAstrometryDAj@3Ob8o^PRJ@rZ2?jwF51
     P10Lp19  C2019 01 11-,!gPw1J0:3H/qxAsh_-F!*PRON8c[yeO3TL'gN7^-Yyu59(\:g2F51
     P10Lp19  C2019 01 11^ERg;@AgGbredacted;o8FOEZO@oB#Q6j=]`XB@bZ?:!ZZw!\_ptF51
     P10Lp19 pC2019 01 115qqAaa^DHpfhXbMB-SDC8nxnlrC`.nX)V?AA8AdJuLwQn_*l(wauL01
     P10Lp19 KC2019 01 11!e_1*Z2r-jw(N4dgWJ;r$k'K94XI6CbG'B3-otwlWmtkXb/i2%;6L01
     P10Lp19 KC2019 01 11X!tDj+1d]click#APx2b:v+!pKw24b+F=H@?F\/QnthKo?#\[=XgL01
     P10Lp19 KC2019 01 12LLZ1rwY8qYNeBTSHJLK`.Cuf+ZC5`IIrAG+3e;xP8S]`W01=T5mu291
     P10Lp19 KC2019 01 12@HhaIsNA^i?h'LLA)6STai!6cdFZ=T?*;h#C/bhereg(*nUV68FC291
     P10Lp19 KC2019 01 12@u4]7iA^DD\-`I5kqD!a7H^*C@XLtxG/[8R7Yj[WLBru1=G0r.Gt291
     P10Lp19 1C2019 01 14ScchU;Y4+nE26qa!h.1a=X[0=XTCgpCt3,h!uV`iUrYMZ[;hl_%8658
     P10Lp19 1C2019 01 14sb2,HOtI$P0n`('3(_/+DhwndformK*_EFr+I!Zr%d\MJ?U7[q@t658
     P10Lp19 1C2019 01 14AI8%/7K'wt\1Gau)5D78oW2*\+,^rM.eR=VXx-,Z-u:kd:m.Q+Xc658
     P10Lp19 1C2019 01 14PPF;(=K:oY!Owb$kSi_!Qk`/TXKS\tk2J7',T,!IeVR=W.LnMQ_g658
     P10Lp19 1C2019 01 14:8H))K85aU\nr%ZL%(SVAAKhA8explanation5W,'YKdbvQ`8228658
     P10Lp19  C2019 01 15.23787 05 49 41.35 +07 45 07.5    ~1F6I 20.6 GVNEOCPI52
     P10Lp19  C2019 01 15.23953 05 49 40.93 +07 45 08.9    ~1F6I 19.5 GVNEOCPI52
     P10Lp19  C2019 01 15.24119 05 49 40.52 +07 45 11.7    ~1F6I       VNEOCPI52
     P10Lp19  C2019 01 15.24285 05 49 40.12 +07 45 14.1    ~1F6I 20.4 GVNEOCPI52

Station data:
(291) LPL/Spacewatch II  (N31.961669 W111.599905)  US/Arizona.  Observers J.
   V. Scotti, R. S. McMillan. 1.8-m f/2.7 reflector + CCD.
(658) Dominion Astrophysical Observatory  (N48.519987 W123.417000)
   Canada/BritColumbia. 1.82-m Plaskett reflector.
(F51) Pan-STARRS 1, Haleakala  (N20.707235 W156.255910)  US/Hawaii.
   Observers N. Primak, A. Schultz, S. Watters, J. Thiel, T. Goggia. Measurer
   PS1 Science Consortium. 1.8-m Ritchey-Chrétien + CCD.
(I52) Steward Observatory, Mt. Lemmon Station  (N32.442547 W110.788920)
   US/Arizona.  Observers B. M. Africano, E. J. Christensen, G. A. Farneth,
   D. C. Fuls, A. R. Gibbs, A. D. Grauer, H. Groeller, J. A. Johnson, R. A.
   Kowalski, S. M. Larson, G. J. Leonard, R. L. Seaman, F. C. Shelly. 1.0-m
   reflector + CCD.
(L01) Višnjan Observatory, Tičan  (N45.290900 E13.749300)  Croatia.
   Observers K. Korlević, E. Pettarin. Measurer E. Pettarin. 1.0-m f/2.9
   reflector + CCD.

Orbital elements:  P10Lp19
   Perihelion 2019 Mar 26.064840 +/- 0.0358 TT =  1:33:22 (JD 2458568.564840)
Epoch 2019 Jan 15.0 TT = JDT 2458498.5   Earth MOID: 0.0120   Ma: 0.0443
M 314.93651060 +/- 0.19             (J2000 ecliptic)          AutoNEOCP
n   0.64316837 +/- 0.00267          Peri.   62.06253 +/- 0.08
a   1.32918753 +/- 0.00369          Node   130.03915 +/- 0.031
e   0.3391233 +/- 0.00248           Incl.    6.51504 +/- 0.045
P   1.53/559.72d           H 23.8   G  0.15   U  8.8  
q 0.87842897 +/- 0.000867    Q 1.77994609 +/- 0.0082
From 18 observations 2019 Jan. 11-15; mean residual 0".31
Residuals in arcseconds: 
190111 F51  .02+  .31+    190112 291  .16+  .03+    190114 658  .18+  .08+    
190111 F51  .34-  .35+    190112 291  .01+  .51-    190114 658  .16+  .08-    
190111 F51  .03+  .27+    190112 291  .57+  .55-    190115 I52  .16+  .09-    
190111 L01  .27+  .11-    190114 658  .60-  .26+    190115 I52  .03+  .72-    
190111 L01  .37-  .01+    190114 658  .18-  .40+    190115 I52  .04+  .05+    
190111 L01  .02-  .27-    190114 658  .47-  .32+    190115 I52  .20+  .43+    

Ephemerides (geocentric):
Date (UTC) HH   RA              Dec         delta   r     elong  mag " sig PA
---- -- -- --  -------------   -----------  ------ ------ -----  --- ---- ---
2019 01 15 15  05 48 12.997   +07 53 31.83  .15223 1.1161 148.4 21.1 .386  11
2019 01 15 16  05 48 03.409   +07 54 24.34  .15206 1.1158 148.3 21.1 .397  11
2019 01 15 17  05 47 53.807   +07 55 17.00  .15190 1.1156 148.2 21.1 .407  11
2019 01 15 18  05 47 44.190   +07 56 09.81  .15174 1.1154 148.2 21.1 .418  11
2019 01 15 19  05 47 34.560   +07 57 02.78  .15158 1.1152 148.1 21.1 .429  11
2019 01 15 20  05 47 24.916   +07 57 55.91  .15142 1.1150 148.0 21.1 .440  11
2019 01 15 21  05 47 15.258   +07 58 49.19  .15125 1.1147 148.0 21.1 .451  11
2019 01 15 22  05 47 05.586   +07 59 42.62  .15109 1.1145 147.9 21.1 .462  11
2019 01 15 23  05 46 55.900   +08 00 36.21  .15093 1.1143 147.8 21.1 .474  12
2019 01 16 00  05 46 46.200   +08 01 29.96  .15077 1.1141 147.8 21.1 .486  12
2019 01 16 01  05 46 36.486   +08 02 23.86  .15061 1.1139 147.7 21.1 .497  12
2019 01 16 02  05 46 26.758   +08 03 17.91  .15045 1.1136 147.6 21.1 .510  12
2019 01 16 03  05 46 17.016   +08 04 12.13  .15029 1.1134 147.6 21.1 .522  12
2019 01 16 04  05 46 07.259   +08 05 06.50  .15013 1.1132 147.5 21.1 .534  12
2019 01 16 05  05 45 57.489   +08 06 01.02  .14997 1.1130 147.4 21.1 .547  12
2019 01 16 06  05 45 47.704   +08 06 55.70  .14981 1.1127 147.4 21.1 .560  12
2019 01 16 07  05 45 37.905   +08 07 50.54  .14965 1.1125 147.3 21.1 .573  12
2019 01 16 08  05 45 28.092   +08 08 45.54  .14949 1.1123 147.2 21.1 .586  12
2019 01 16 09  05 45 18.265   +08 09 40.69  .14933 1.1121 147.2 21.1 .599  12
2019 01 16 10  05 45 08.424   +08 10 36.00  .14917 1.1119 147.1 21.1 .613  12
2019 01 16 11  05 44 58.568   +08 11 31.47  .14901 1.1116 147.0 21.1 .626  12
2019 01 16 12  05 44 48.698   +08 12 27.09  .14885 1.1114 147.0 21.1 .640  12
2019 01 16 13  05 44 38.814   +08 13 22.87  .14869 1.1112 146.9 21.1 .654  12
2019 01 16 14  05 44 28.916   +08 14 18.81  .14853 1.1110 146.8 21.1 .668  12
2019 01 16 15  05 44 19.003   +08 15 14.91  .14837 1.1108 146.8 21.1 .683  12
2019 01 16 16  05 44 09.075   +08 16 11.17  .14822 1.1105 146.7 21.1 .697  12
2019 01 16 17  05 43 59.134   +08 17 07.59  .14806 1.1103 146.6 21.1 .712  12
2019 01 16 18  05 43 49.178   +08 18 04.16  .14790 1.1101 146.6 21.1 .727  12
2019 01 16 19  05 43 39.207   +08 19 00.90  .14774 1.1099 146.5 21.1 .742  12
2019 01 16 20  05 43 29.223   +08 19 57.79  .14758 1.1097 146.4 21.1 .757  12
2019 01 16 21  05 43 19.223   +08 20 54.84  .14743 1.1094 146.4 21.1 .773  12
2019 01 16 22  05 43 09.209   +08 21 52.05  .14727 1.1092 146.3 21.1 .788  12
2019 01 16 23  05 42 59.181   +08 22 49.43  .14711 1.1090 146.2 21.1 .804  12
2019 01 17 00  05 42 49.138   +08 23 46.96  .14695 1.1088 146.2 21.1 .820  12
2019 01 17 01  05 42 39.081   +08 24 44.65  .14680 1.1086 146.1 21.1 .836  12
2019 01 17 02  05 42 29.009   +08 25 42.50  .14664 1.1083 146.0 21.1 .853  12
2019 01 17 03  05 42 18.922   +08 26 40.51  .14648 1.1081 146.0 21.1 .869  12
2019 01 17 04  05 42 08.821   +08 27 38.69  .14633 1.1079 145.9 21.1 .886  12
2019 01 17 05  05 41 58.705   +08 28 37.02  .14617 1.1077 145.8 21.1 .903  12
2019 01 17 06  05 41 48.574   +08 29 35.52  .14601 1.1075 145.7 21.1 .920  12
2019 01 17 07  05 41 38.429   +08 30 34.17  .14586 1.1072 145.7 21.1 .937  12
2019 01 17 08  05 41 28.269   +08 31 32.99  .14570 1.1070 145.6 21.1 .955  12
2019 01 17 09  05 41 18.094   +08 32 31.97  .14555 1.1068 145.5 21.1 .972  12
2019 01 17 10  05 41 07.905   +08 33 31.11  .14539 1.1066 145.5 21.1 0.99  12
2019 01 17 11  05 40 57.700   +08 34 30.41  .14524 1.1063 145.4 21.1 1.01  12
2019 01 17 12  05 40 47.481   +08 35 29.88  .14508 1.1061 145.3 21.1 1.03  12
2019 01 17 13  05 40 37.247   +08 36 29.51  .14493 1.1059 145.3 21.1 1.04  12
2019 01 17 14  05 40 26.998   +08 37 29.30  .14477 1.1057 145.2 21.1 1.06  11